Regional Weather Roundup
Issued by NWS

Home | Current Version | Previous Version | Graphics & Text | Print | Product List | Glossary Off
Versions: 1 2 3 4 5 6 7 8 9 10 11 12 13 14 15 16 17 18 19 20 21 22 23 24 25 26 27 28 29 30 31 32 33 34 35 36 37 38 39 40 41 42 43 44 45 46 47 48 49 50

000
ASUS45 KCYS 231710
RWRWY

WYOMING REGIONAL WEATHER ROUNDUP
NATIONAL WEATHER SERVICE CHEYENNE WY
1100 AM MDT SUN JUL 23 2017

NOTE:  "FAIR" INDICATES FEW OR NO CLOUDS BELOW 12,000 FEET
WITH NO SIGNIFICANT WEATHER AND/OR OBSTRUCTIONS TO VISIBILITY.

WYZ001-231800-
YELLOWSTONE NATIONAL PARK

CITY           SKY/WX    TMP DP  RH WIND       PRES   REMARKS
LK YELLOWSTONE   N/A     64  39  39 SE3       30.39F
W YELLOWSTONE  NOT AVBL

$$
WYZ002>013-054>058-071-098>099-231800-
NORTHERN WYOMING

CITY           SKY/WX    TMP DP  RH WIND       PRES   REMARKS
JACKSON        SUNNY     64  43  45 S7        30.31F
CODY           FAIR      81  33  17 CALM      30.17F
GREYBULL       FAIR      81  42  25 E6        30.08F
WORLAND        FAIR      82  40  22 NW7       30.10F
SHERIDAN       FAIR      80  42  25 CALM      30.10F
BUFFALO        FAIR      83  31  15 CALM      30.17S
GILLETTE       FAIR      85  41  21 SE8       30.13S
HULETT         FAIR      82  43  24 E5        30.15F
NEWCASTLE      FAIR      81  37  21 SW6       30.15F

$$
WYZ014>020-022>026-101>103-231800-
CENTRAL WYOMING

CITY           SKY/WX    TMP DP  RH WIND       PRES   REMARKS
BIG PINEY      FAIR      72  40  31 SW3       30.33S
PINEDALE       FAIR      73  36  25 CALM      30.34S
DUBOIS         FAIR      75  28  17 SE3       30.31F
LANDER         FAIR      79  37  22 VRB5      30.22F
RIVERTON       FAIR      76  39  26 E5        30.20F
CASPER         FAIR      81  44  27 VRB3      30.19F
DOUGLAS        FAIR      83  50  31 N5        30.18F

$$
WYZ021-027>030-104>119-231800-
SOUTHERN WYOMING

CITY           SKY/WX    TMP DP  RH WIND       PRES   REMARKS
EVANSTON       FAIR      76  38  25 VRB3      30.32F
KEMMERER         N/A     77  32  19 CALM      30.34F
FORT BRIDGER   FAIR      79  30  17 NE3       30.34F
ROCK SPRINGS   FAIR      78  32  18 CALM      30.29F
RAWLINS        FAIR      81  36  19 S7        30.30F
SARATOGA       FAIR      82  32  16 SE13      30.32F
LARAMIE        FAIR      78  34  20 VRB3      30.34F
CHEYENNE       FAIR      84  48  28 CALM      30.26F
TORRINGTON     FAIR      81  54  39 S5        30.13F
PINE BLUFFS    FAIR      84  48  28 S5        30.21S

$$



USA.gov is the U.S. government's official web portal to all federal, state and local government web resources and services.